Volver al catálogo

FENGYUN 1C DEB

ActivoSSO
NORAD 31841·DEBRIS·🇨🇳 China

Lanzado May 10, 1999 desde Taiyuan Satellite Launch Center

Loading…

Próximos Pases (próximas 24 horas)

TLE

EnvejeciendoSource: Space-Track

Época: Sep 9, 2026, 17:12 UTC

1 31841U 99025CJF 26252.71699630  .00002433  00000-0  10094-2 0  9998
2 31841  98.4452  47.8217 0301627 256.3934 115.7811 14.05647508631443

Sigue FENGYUN 1C DEB en tiempo real con AllMySat

Download on the App Store